Location: Oshawa
(43.9000°N, 78.8670°W)
Time: 08:34:53
(UTC-04:00)

Cosmos 1821 Rocket - Visible Passes

Search period start: 24 April 2018 00:00
Search period end: 04 May 2018 00:00
Orbit: 945 x 1005 km, 82.9° (Epoch: 23 April)

Date Brightness Start Highest point End Pass type
(mag) Time Alt. Az. Time Alt. Az. Time Alt. Az.
24 Apr 5.8 20:43:29 10° E 20:45:28 12° ENE 20:47:27 10° ENE visible
24 Apr 3.9 22:26:23 30° S 22:29:44 78° E 22:36:02 10° N visible
25 Apr 6.2 00:11:38 10° WSW 00:15:50 18° WNW 00:20:01 10° NNW visible
25 Apr 5.2 21:06:07 12° SE 21:10:13 22° E 21:14:47 10° NE visible
25 Apr 4.4 22:50:43 21° SSW 22:55:02 62° W 23:01:16 10° N visible
26 Apr 4.6 21:30:22 15° SSE 21:35:08 38° E 21:40:50 10° NNE visible
26 Apr 5.3 23:14:57 11° SW 23:20:30 36° WNW 23:26:13 10° N visible
27 Apr 4.0 21:54:30 13° S 22:00:13 67° E 22:06:26 10° NNE visible
27 Apr 6.1 23:41:31 10° WSW 23:46:09 21° WNW 23:50:46 10° NNW visible
28 Apr 4.2 22:19:10 10° SSW 22:25:28 72° W 22:31:44 10° N visible
29 Apr 6.6 00:09:50 10° W 00:12:01 12° WNW 00:14:10 10° NW visible
29 Apr 4.8 21:00:11 10° SSE 21:05:41 32° E 21:11:06 10° NNE visible
29 Apr 5.1 22:44:57 10° SW 22:50:53 41° WNW 22:56:46 10° N visible
30 Apr 4.1 21:24:34 10° S 21:30:42 57° E 21:36:48 10° NNE visible
30 Apr 6.0 23:11:29 10° WSW 23:16:28 24° WNW 23:21:27 10° NNW visible
01 May 4.1 21:49:35 10° S 21:55:54 83° W 22:02:11 10° N visible
01 May 6.6 23:39:12 10° W 23:42:17 14° WNW 23:45:21 10° NNW visible
02 May 4.9 22:15:13 10° SSW 22:21:16 48° WNW 22:27:17 10° N visible
03 May 4.3 20:55:13 10° SSE 21:01:12 49° E 21:07:09 10° NNE visible
03 May 5.9 22:41:32 10° SW 22:46:49 28° WNW 22:52:04 10° NNW visible
